sat.trackr.live / text

‹ back to catalog

STARLINK-37391

NORAD 68779 · 2026-086P

PAYLOAD ACTIVE UNKNOWN

§ Identity

Operator
Country
US
Launch date
2026-04-19
Launch site
AFWTR
Launch vehicle
Mass (kg)
RCS (m²)

Purposes: comms

External: N2YO · Heavens-Above · Gunter

§ Orbital elements

Epoch: 2026-05-23T15:14:45.269952Z

Period
91.41 min
Inclination
97.2843°
Eccentricity
0.0001204
Mean motion
15.75315605 rev/d
Perigee alt
342.9 km
Apogee alt
344.5 km
Semi-major
6,721.9 km
B*
1.6805e-3
RAAN
180.4367°
Arg perigee
12.0261°
Mean anomaly
348.1033°
Rev number
529

§ Raw data

STARLINK-373911 68779U 26086P   26143.63524618  .00259712  00000+0  16805-2 0  99972 68779  97.2843 180.4367 0001204  12.0261 348.1033 15.75315605  5296

JSON: /api/v1/satellites/68779 · /tle

For live sub-satellite position, see the globe view (requires WebGL).

§ Visibility from observer

Set your observer location to see the next 7 days of passes ≥ 10°. The values pass through the URL so the page stays shareable.

No JS? Fill the form by hand. The geolocation button needs JavaScript.